Mt. Pocono, PA

5:07 AM EDT on March 28, 2017 (GMT -0400)
Pocono Mountains Municipal

Weather History for KMPO - November, 2012

Change the Weather History Date:

Thursday, November 1, 2012

  Actual Average Record
Temperature  
Mean Temperature 39 °F 44 °F  
Max Temperature 41 °F 53 °F 77 °F (1950)
Min Temperature 37 °F 35 °F 11 °F (1917)
Degree Days  
Heating Degree Days 26 21  
Month to date heating degree days 26 21  
Since 1 July heating degree days 688 809  
Cooling Degree Days 0 0  
Month to date cooling degree days 0 0  
Year to date cooling degree days 453 314  
Moisture  
Dew Point 35 °F    
Average Humidity 86    
Maximum Humidity 92    
Minimum Humidity 79    
Precipitation  
Precipitation T in 0.12 in 1.50 in (1941)
Month to date precipitation T 0.12  
Year to date precipitation 41.82 40.42  
Sea Level Pressure  
Sea Level Pressure 29.56 in    
Wind  
Wind Speed 12 mph (West)    
Max Wind Speed 16 mph    
Max Gust Speed 24 mph    
Visibility 10 miles    
Events Rain    
T = Trace of Precipitation, MM = Missing Value Source: NWS Daily Summary

Daily Weather History Graph

Daily Weather History Graph

Search for Another Location

Airport or City:

Trip Planner

Search our weather history database for the weather conditions in past years. The results will help you decide how hot, cold, wet, or windy it might be!

Date:

Astronomy

Nov. 01, 2012 Rise Set
Actual Time 7:33 AM EDT 5:56 PM EDT
Civil Twilight 7:04 AM EDT 6:25 PM EDT
Nautical Twilight 6:31 AM EDT 6:57 PM EDT
Astronomical Twilight 5:59 AM EDT 7:29 PM EDT
Moon 7:50 PM EDT (11/1) 10:04 AM EDT (11/1)
Length of Visible Light 11h 20m
Length of Day
10h 23m
Waning Gibbous, 93% of the Moon is Illuminated
Nov 1
Waning Gibbous
Nov 6
Last Quarter
Nov 13
New
Nov 20
First Quarter
Nov 28
Full

Hourly Weather History & Observations

Time (EDT) Temp. Windchill Dew Point Humidity Pressure Visibility Wind Dir Wind Speed Gust Speed Precip Events Conditions
12:53 AM 37.9 °F 30.5 °F 35.1 °F 89% 29.55 in 10.0 mi West 11.5 mph - N/A   Overcast
1:25 AM 37.4 °F 30.8 °F 35.6 °F 93% 29.52 in 10.0 mi West 9.2 mph - N/A   Overcast
1:53 AM 37.9 °F 30.5 °F 35.1 °F 89% 29.55 in 10.0 mi West 11.5 mph - N/A   Overcast
2:53 AM 37.9 °F 29.2 °F 34.0 °F 86% 29.54 in 10.0 mi West 15.0 mph 24.2 mph N/A   Overcast
3:42 AM 37.4 °F 29.3 °F 35.6 °F 93% 29.50 in 10.0 mi West 12.7 mph - N/A   Overcast
3:53 AM 37.0 °F 28.9 °F 35.1 °F 93% 29.54 in 10.0 mi West 12.7 mph 20.7 mph N/A   Overcast
4:53 AM 37.9 °F 28.9 °F 34.0 °F 86% 29.54 in 10.0 mi West 16.1 mph 21.9 mph N/A   Overcast
6:16 AM 37.4 °F 29.8 °F 33.8 °F 87% 29.51 in 10.0 mi WNW 11.5 mph 21.9 mph N/A   Overcast
6:53 AM 37.9 °F 29.2 °F 34.0 °F 86% 29.55 in 10.0 mi West 15.0 mph - N/A   Overcast
7:53 AM 37.0 °F 28.9 °F 34.0 °F 89% 29.56 in 10.0 mi West 12.7 mph 19.6 mph N/A   Overcast
8:53 AM 37.9 °F 29.2 °F 34.0 °F 86% 29.57 in 10.0 mi West 15.0 mph - N/A   Overcast
9:53 AM 39.0 °F 32.3 °F 34.0 °F 82% 29.58 in 10.0 mi West 10.4 mph 20.7 mph N/A   Overcast
10:53 AM 39.9 °F 32.5 °F 35.1 °F 83% 29.59 in 10.0 mi West 12.7 mph 20.7 mph N/A   Overcast
11:53 AM 39.9 °F 32.9 °F 35.1 °F 83% 29.60 in 10.0 mi West 11.5 mph 19.6 mph N/A   Overcast
12:53 PM 41.0 °F - 36.0 °F 82% 29.59 in - North - - N/A   Unknown
1:46 PM 39.2 °F 31.6 °F 35.6 °F 87% 29.55 in 10.0 mi West 12.7 mph - N/A Rain Light Rain
2:43 PM 39.2 °F 32.0 °F 35.6 °F 87% 29.54 in 10.0 mi West 11.5 mph 19.6 mph 0.00 in   Overcast
2:53 PM 39.9 °F 33.9 °F 37.0 °F 89% 29.57 in 10.0 mi West 9.2 mph - 0.00 in   Overcast
3:09 PM 39.2 °F 33.0 °F 35.6 °F 87% 29.54 in 10.0 mi West 9.2 mph - N/A   Overcast
3:53 PM 41.0 °F 35.2 °F 36.0 °F 82% 29.58 in 10.0 mi West 9.2 mph - N/A   Overcast
4:53 PM 41.0 °F 34.7 °F 36.0 °F 82% 29.59 in 10.0 mi West 10.4 mph - N/A   Overcast
5:28 PM 41.0 °F 33.9 °F 35.6 °F 81% 29.56 in 10.0 mi West 12.7 mph - N/A   Overcast
5:53 PM 41.0 °F 34.3 °F 36.0 °F 82% 29.59 in 10.0 mi West 11.5 mph - N/A   Overcast
6:53 PM 41.0 °F 35.2 °F 36.0 °F 82% 29.60 in 10.0 mi West 9.2 mph - N/A   Overcast
7:23 PM 41.0 °F 34.3 °F 35.6 °F 81% 29.58 in 10.0 mi West 11.5 mph - N/A   Overcast
7:53 PM 39.9 °F 33.9 °F 36.0 °F 86% 29.62 in 10.0 mi West 9.2 mph - N/A   Overcast